Weather History for Hattiesburg, MS

Change the Weather History Date:

Wednesday, November 16, 2011

  Actual Average Record
Temperature  
Mean Temperature 71 °F 57 °F  
Max Temperature 81 °F 70 °F 87 °F (1964)
Min Temperature 61 °F 45 °F 28 °F (1982)
Degree Days  
Heating Degree Days 0 8  
Month to date heating degree days 113 105  
Since 1 July heating degree days 231 180  
Cooling Degree Days 6 1  
Month to date cooling degree days 26 20  
Year to date cooling degree days 2740 2382  
Growing Degree Days 22 (Base 50)    
Moisture  
Dew Point 66 °F    
Average Humidity 71    
Maximum Humidity 93    
Minimum Humidity 49    
Precipitation  
Precipitation 0.60 in 0.16 in 1.35 in (2000)
Month to date precipitation 1.25 2.09  
Year to date precipitation 50.74 52.08  
Sea Level Pressure  
Sea Level Pressure 29.85 in    
Wind  
Wind Speed 9 mph (SW)    
Max Wind Speed 20 mph    
Max Gust Speed 26 mph    
Visibility 9 miles    
Events Rain , Thunderstorm    
T = Trace of Precipitation, MM = Missing Value Source: NWS Daily Summary

Daily Weather History Graph

Daily Weather History Graph

Search for Another Location

Airport:

Trip Planner

Search our weather history database for the weather conditions in past years. The results will help you decide how hot, cold, wet, or windy it might be!

Date:

Astronomy

Nov. 16, 2011 Rise Set
Actual Time 6:25 AM CST 4:58 PM CST
Civil Twilight 5:59 AM CST 5:23 PM CST
Nautical Twilight 5:29 AM CST 5:53 PM CST
Astronomical Twilight 5:01 AM CST 6:22 PM CST
Moon 10:08 PM CST (11/16) 11:02 AM CST (11/16)
Length of Visible Light 11h 24m
Length of Day
10h 33m
Waning Gibbous, 70% of the Moon is Illuminated
Nov 16
Waning Gibbous
Nov 18
Last Quarter
Nov 25
New
Dec 2
First Quarter
Dec 10
Full

Hourly Weather History & Observations

Time (CST) Temp. Heat Index Dew Point Humidity Pressure Visibility Wind Dir Wind Speed Gust Speed Precip Events Conditions
12:03 AM 73.4 °F - 69.8 °F 88% 29.84 in 9.0 mi South 9.2 mph - N/A   Mostly Cloudy
12:41 AM 73.4 °F - 69.8 °F 88% 29.84 in 10.0 mi South 9.2 mph - N/A   Mostly Cloudy
12:53 AM 73.0 °F - 69.1 °F 87% 29.83 in 10.0 mi South 10.4 mph - N/A   Mostly Cloudy
1:39 AM 73.4 °F - 69.8 °F 88% 29.83 in 10.0 mi South 6.9 mph - N/A   Overcast
1:53 AM 73.0 °F - 69.1 °F 87% 29.82 in 10.0 mi South 5.8 mph - N/A   Overcast
2:35 AM 73.4 °F - 69.8 °F 88% 29.82 in 10.0 mi South 6.9 mph - N/A   Mostly Cloudy
2:43 AM 73.4 °F - 69.8 °F 88% 29.81 in 10.0 mi SSE 6.9 mph - N/A   Overcast
2:53 AM 73.0 °F - 69.1 °F 87% 29.80 in 10.0 mi SSE 6.9 mph - N/A   Mostly Cloudy
3:16 AM 73.4 °F - 69.8 °F 88% 29.80 in 10.0 mi South 8.1 mph - N/A   Mostly Cloudy
3:46 AM 73.4 °F - 69.8 °F 88% 29.78 in 10.0 mi SSE 9.2 mph - N/A   Mostly Cloudy
3:53 AM 73.0 °F - 69.1 °F 87% 29.77 in 10.0 mi SSE 8.1 mph - N/A   Mostly Cloudy
4:53 AM 73.9 °F - 69.1 °F 85% 29.77 in 10.0 mi South 10.4 mph - 0.00 in   Overcast
5:35 AM 73.4 °F - 69.8 °F 88% 29.78 in 10.0 mi South 12.7 mph - N/A   Overcast
5:43 AM 73.4 °F - 69.8 °F 88% 29.78 in 6.0 mi South 13.8 mph 20.7 mph 0.02 in Rain , Thunderstorm Light Rain
5:53 AM 73.9 °F - 69.1 °F 85% 29.78 in 6.0 mi South 8.1 mph 25.3 mph 0.04 in Rain , Thunderstorm Light Rain
6:09 AM 73.4 °F - 69.8 °F 88% 29.79 in 8.0 mi SSW 6.9 mph - 0.02 in Rain Light Rain
6:25 AM 73.4 °F - 69.8 °F 88% 29.79 in 2.5 mi SW 11.5 mph 24.2 mph 0.08 in Rain Light Rain
6:34 AM 71.6 °F - 68.0 °F 88% 29.80 in 1.8 mi SSW 11.5 mph 20.7 mph 0.22 in Rain Heavy Rain
6:53 AM 72.0 °F - 69.1 °F 91% 29.79 in 1.2 mi WSW 13.8 mph 23.0 mph 0.51 in Rain Heavy Rain
7:00 AM 73.4 °F - 69.8 °F 88% 29.80 in 3.0 mi SSW 8.1 mph - 0.01 in Rain Light Rain
7:08 AM 71.6 °F - 68.0 °F 88% 29.80 in 10.0 mi SW 4.6 mph - 0.01 in Rain , Thunderstorm Light Rain
7:26 AM 71.6 °F - 69.8 °F 94% 29.81 in 10.0 mi Calm Calm - 0.01 in   Overcast
7:53 AM 73.0 °F - 69.1 °F 87% 29.81 in 10.0 mi SSW 5.8 mph - 0.01 in   Mostly Cloudy
8:53 AM 75.0 °F - 69.1 °F 82% 29.83 in 10.0 mi SW 11.5 mph 19.6 mph N/A   Mostly Cloudy
9:03 AM 75.2 °F - 69.8 °F 83% 29.84 in 10.0 mi SW 8.1 mph - N/A   Mostly Cloudy
9:14 AM 75.2 °F - 69.8 °F 83% 29.83 in 10.0 mi South 6.9 mph - N/A   Scattered Clouds
9:53 AM 77.0 °F - 66.9 °F 71% 29.84 in 10.0 mi SW 12.7 mph - N/A   Mostly Cloudy
10:53 AM 78.1 °F - 63.0 °F 60% 29.83 in 10.0 mi WSW 18.4 mph 24.2 mph N/A   Mostly Cloudy
11:53 AM 80.1 °F 81.1 °F 61.0 °F 52% 29.81 in 10.0 mi WSW 15.0 mph 25.3 mph N/A   Partly Cloudy
12:53 PM 80.1 °F 80.7 °F 59.0 °F 48% 29.81 in 10.0 mi West 16.1 mph 24.2 mph N/A   Clear
1:53 PM 81.0 °F 81.3 °F 59.0 °F 47% 29.81 in 10.0 mi WSW 9.2 mph 16.1 mph N/A   Scattered Clouds
2:53 PM 80.1 °F 80.9 °F 60.1 °F 50% 29.82 in 10.0 mi West 6.9 mph - N/A   Mostly Cloudy
3:53 PM 78.1 °F - 61.0 °F 56% 29.82 in 10.0 mi West 6.9 mph - N/A   Clear
4:53 PM 75.0 °F - 62.1 °F 64% 29.83 in 10.0 mi Calm Calm - N/A   Clear
5:53 PM 69.1 °F - 63.0 °F 81% 29.86 in 10.0 mi Calm Calm - N/A   Clear
6:53 PM 66.9 °F - 62.1 °F 84% 29.88 in 10.0 mi Calm Calm - N/A   Clear
7:53 PM 64.0 °F - 62.1 °F 93% 29.91 in 5.0 mi NW 5.8 mph - N/A   Clear
8:50 PM 68.0 °F - 62.6 °F 83% 29.94 in 10.0 mi NW 5.8 mph - N/A   Mostly Cloudy
8:53 PM 68.0 °F - 63.0 °F 84% 29.94 in 10.0 mi NNW 4.6 mph - N/A   Mostly Cloudy
9:42 PM 68.0 °F - 62.6 °F 83% 29.97 in 10.0 mi North 6.9 mph - N/A   Overcast
9:53 PM 68.0 °F - 61.0 °F 78% 29.97 in 10.0 mi North 8.1 mph - N/A   Overcast
10:16 PM 66.2 °F - 60.8 °F 83% 29.99 in 10.0 mi North 12.7 mph 19.6 mph N/A   Overcast
10:46 PM 64.4 °F - 57.2 °F 77% 30.01 in 8.0 mi North 11.5 mph - 0.01 in Rain Light Rain
10:53 PM 63.0 °F - 59.0 °F 87% 30.00 in 5.0 mi NNW 9.2 mph 17.3 mph 0.02 in Rain Rain
11:15 PM 62.6 °F - 57.2 °F 82% 30.03 in 10.0 mi North 9.2 mph - 0.02 in Rain Light Rain
11:49 PM 62.6 °F - 57.2 °F 82% 30.05 in 10.0 mi NNW 6.9 mph - 0.02 in   Overcast
11:53 PM 62.1 °F - 57.9 °F 86% 30.04 in 10.0 mi NNW 10.4 mph 20.7 mph 0.02 in   Overcast